Форум керамистов

Художественная керамика - форум сайта "КерамикАрт.Ру"

Вы не зашли.

  • Список 
  • » Услуги для керамистов: аренда оборудования, обжиг и др.

Услуги для керамистов: аренда оборудования, обжиг и др.

Тема Ответов Просмотров Последнее сообщение
Yeezy Boost 350 V2 is perfect оставил sexeoe
0 63 2017-05-15 11:15:10 оставил sexeoe
Free download game minecraft for laptop оставил xxckzapajytk
1 189 2017-05-15 06:24:01 оставил 2015911caihuali
Xliveless Gta Iv Download оставил zujchjfevt94
1 131 2017-05-15 05:19:11 оставил 2015911caihuali
0 70 2017-05-13 10:59:39 оставил maxeoe
2 308 2017-05-12 11:12:07 оставил leilei3915
Download For Rar Software оставил zujchjfevt94
1 202 2017-05-03 10:09:56 оставил 2015911caihuali
Cheap Pandora Charms Sales UK Online оставил cliecnrt
4 653 2017-04-25 17:33:42 оставил Gaia1956
Smart Driver Updater 4 Crack оставил halifadankwambo
2 397 2017-03-28 09:20:25 оставил jianbin0328
Wifi cracker software download for android оставил zujchjfevt94
1 294 2017-03-28 08:27:20 оставил jianbin0328
0 135 2017-03-22 12:09:27 оставил aasBlithe
Estos Nikes elegantes y detallados cuentan оставил ScottyEsveld
0 158 2017-03-11 05:11:32 оставил ScottyEsveld
0 139 2017-03-11 05:04:13 оставил ScottyEsveld
0 143 2017-03-06 09:20:32 оставил Diana90
Xerox Mobile Express Driver Windows 7 Download оставил zujchjfevt94
1 237 2017-03-01 06:48:25 оставил 20151112yuanyuan
0 135 2017-03-01 05:28:37 оставил Ceapptr
AN AUTHENTIC REISSUE OF A CLASSIC SNEAKER. оставил Kenny Smith
0 149 2017-02-23 05:40:56 оставил Kenny Smith
0 145 2017-02-22 06:21:23 оставил keramika
2 602 2017-01-18 17:35:22 оставил Gaia1956
Pandora Bound In Love Bracelet Sale оставил seeNathan
0 191 2017-01-06 10:42:54 оставил seeNathan
Pandora Philadelphia Eagles Charms Cheap оставил seeNathan
0 213 2017-01-06 10:41:16 оставил seeNathan
The contempo beachcomber of abandon оставил mmodiy1
0 160 2016-12-23 10:54:15 оставил mmodiy1
0 166 2016-12-22 05:48:32 оставил Waltero
Admiral Obama said a lot accepting оставил mmodiy1
0 178 2016-12-21 09:42:02 оставил mmodiy1
0 215 2016-12-16 10:22:58 оставил zosyidr5
0 211 2016-12-10 11:47:14 оставил mmodiy1
0 237 2016-11-27 09:17:28 оставил baiji7
0 356 2016-09-27 06:10:29 оставил CraigWatts
0 316 2016-09-14 11:09:02 оставил Walder
Do not miss these jackets! оставил Cherry1
0 336 2016-08-17 05:43:19 оставил Cherry1
Nike Air Max Thea soldes france оставил siren7777
1 447 2016-08-01 12:34:37 оставил vuplusbox
  • Список 
  • » Услуги для керамистов: аренда оборудования, обжиг и др.

Board footer

Powered by PunBB
© Copyright 2002–2005 Rickard Andersson

Реклама:

Rambler's Top100